Stations météo

réclame
Mon MeteoGroup
Arjeplog, Suède (2124): Température de l'air & dewpoint: 11.07.2018 13:00:00 - 17.07.2018 13:00:00 (CEST)Arjeplog, Suède (2124): Vitesse du vent & gusts: 11.07.2018 13:00:00 - 17.07.2018 13:00:00 (CEST)Arjeplog, Suède (2124): Direction du vent: 11.07.2018 13:00:00 - 17.07.2018 13:00:00 (CEST)Arjeplog, Suède (2124): reduced air pressure: 11.07.2018 13:00:00 - 17.07.2018 13:00:00 (CEST)Arjeplog, Suède (2124): visibility: 11.07.2018 13:00:00 - 17.07.2018 13:00:00 (CEST)Arjeplog, Suède (2124): Quantités de précipitations: 11.07.2018 13:00:00 - 17.07.2018 13:00:00 (CEST)
Date & Time tt [°C] td [°C] ff [km/h] ff [knt] fx [km/h] fx [knt] dd ppp [hPa] vv [km] rr [mm]
17.07.2018 13:00:00 28,7 10,8 9 5 18 10 S 1016,3 28 0,0
17.07.2018 12:00:00 28,0 13,5 11 6 19 10 S 1016,5 23 0,0
17.07.2018 11:00:00 26,3 14,1 10 6 16 9 S 1016,9 29 0,0
17.07.2018 10:00:00 25,2 15,5 4 2 10 5 S 1017,1 30 0,0
17.07.2018 09:00:00 23,8 15,3 3 2 11 6 N 1017,5 39 0,0
17.07.2018 08:00:00 22,4 14,3 4 2 7 4 E 1017,6 37 0,0
17.07.2018 07:00:00 22,0 13,9 2 1 5 3 ENE 1017,5 35 0,0
17.07.2018 06:00:00 20,3 15,1 2 1 6 3 NNE 1017,9 35 0,0
17.07.2018 05:00:00 17,1 14,0 2 1 5 3 ENE 1018,5 36 0,0
17.07.2018 04:00:00 14,3 13,0 0 0 6 4 N 1018,9 40 0,0
17.07.2018 03:00:00 14,0 13,0 2 1 4 2 E 1018,7 40 0,0
17.07.2018 02:00:00 14,6 13,1 0 0 4 2 N 1018,5 46 0,0
17.07.2018 01:00:00 15,3 13,7 0 0 4 2 N 1018,1 40 0,0
17.07.2018 00:00:00 15,9 13,4 0 0 3 2 N 1017,7 46 0,0
16.07.2018 23:00:00 17,9 14,0 0 0 5 3 N 1016,9 46 0,0
16.07.2018 22:00:00 20,6 13,3 0 0 5 3 N 1016,2 49 0,0
16.07.2018 21:00:00 23,8 11,8 4 2 9 5 E 1015,3 41 0,0
16.07.2018 20:00:00 25,8 11,5 5 3 10 5 S 1014,9 37 0,0
16.07.2018 19:00:00 26,6 11,1 3 2 10 6 SSW 1014,6 36 0,0
16.07.2018 18:00:00 26,4 8,8 3 1 11 6 S 1014,6 41 0,0
16.07.2018 17:00:00 26,2 8,2 6 3 12 6 SSE 1014,8 37 0,0
16.07.2018 16:00:00 25,6 9,8 4 2 13 7 S 1015,0 34 0,0
16.07.2018 15:00:00 24,2 11,5 5 3 11 6 NNE 1015,5 39 0,0
16.07.2018 14:00:00 24,3 11,6 4 2 12 6 ESE 1015,7 33 0,0
16.07.2018 13:00:00 23,2 10,6 5 3 14 7 SW 1016,0 43 0,0
16.07.2018 12:00:00 21,7 11,7 5 3 14 8 SE 1016,5 26 0,0
16.07.2018 11:00:00 20,2 10,9 5 3 14 8 S 1016,9 40 0,0
16.07.2018 10:00:00 19,6 10,3 5 3 12 6 SW 1017,0 36 0,0
16.07.2018 09:00:00 18,1 10,7 4 2 12 7 NE 1017,2 38 0,0
16.07.2018 08:00:00 17,4 11,2 5 3 13 7 NNW 1017,3 38 0,0
16.07.2018 07:00:00 16,1 10,8 5 3 13 7 WSW 1017,7 48 0,0
16.07.2018 06:00:00 14,5 10,7 6 4 11 6 WSW 1018,1 37 0,0
16.07.2018 05:00:00 13,1 11,0 2 1 9 5 W 1018,0 37 0,0
16.07.2018 04:00:00 10,6 10,1 3 2 6 3 WSW 1018,5 35 0,0
16.07.2018 03:00:00 9,7 9,1 5 3 10 6 E 1018,7 31 0,0
16.07.2018 02:00:00 9,4 8,3 2 1 8 5 W 1018,4 39 0,0
16.07.2018 01:00:00 11,7 9,6 4 2 13 7 W 1017,6 50 0,0
16.07.2018 00:00:00 12,9 9,7 2 1 10 5 WNW 1017,2 46 0,0
15.07.2018 23:00:00 15,1 9,7 6 3 16 8 WNW 1016,6 50 0,0
15.07.2018 22:00:00 16,7 9,6 8 5 18 10 WNW 1015,6 50 0,0
15.07.2018 21:00:00 17,1 9,8 8 4 25 14 W 1015,3 50 0,0
15.07.2018 20:00:00 18,6 9,9 11 6 21 11 W 1014,4 45 0,0
15.07.2018 19:00:00 19,0 10,0 12 7 22 12 WSW 1014,0 49 0,0
15.07.2018 18:00:00 21,0 9,9 12 6 27 15 W 1013,5 36 0,0
15.07.2018 17:00:00 21,1 9,7 13 7 26 14 W 1013,1 44 0,0
15.07.2018 16:00:00 21,8 9,7 14 8 28 15 WNW 1012,9 31 0,0
15.07.2018 15:00:00 18,7 9,7 6 3 11 6 NNW 1013,5 45 0,0
15.07.2018 14:00:00 18,6 8,6 6 4 14 8 NNE 1013,2 44 0,0
15.07.2018 13:00:00 18,9 8,5 8 4 13 7 E 1012,7 36 0,0
15.07.2018 12:00:00 18,9 8,2 5 3 13 7 NNW 1012,9 29 0,0
15.07.2018 11:00:00 18,6 8,8 6 3 13 7 WNW 1012,8 32 0,0
15.07.2018 10:00:00 16,5 9,2 5 3 14 8 NNE 1013,0 38 0,0
15.07.2018 09:00:00 16,6 8,8 5 3 13 7 WNW 1012,5 39 0,0
15.07.2018 08:00:00 16,3 9,9 7 4 13 7 W 1012,2 36 0,0
15.07.2018 07:00:00 15,1 10,1 5 3 8 4 NNE 1012,1 42 0,0
15.07.2018 06:00:00 14,5 10,5 0 0 4 2 N 1012,4 41 0,0
15.07.2018 05:00:00 14,4 10,2 2 1 5 3 NE 1012,2 42 0,0
15.07.2018 04:00:00 11,4 9,3 0 0 3 2 N 1012,8 43 0,0
15.07.2018 03:00:00 10,7 8,5 0 0 6 3 N 1012,7 43 0,0
15.07.2018 02:00:00 11,6 8,1 0 0 7 4 N 1012,3 41 0,0
15.07.2018 01:00:00 12,3 8,4 0 0 5 3 N 1011,9 41 0,0
15.07.2018 00:00:00 14,3 8,7 0 0 8 4 N 1011,5 45 0,0
14.07.2018 23:00:00 17,5 7,8 4 2 14 8 NNW 1010,7 50 0,0
14.07.2018 22:00:00 18,7 7,5 7 4 19 10 NW 1010,3 50 0,0
14.07.2018 21:00:00 20,7 7,3 7 4 17 9 NNW 1009,8 50 0,0
14.07.2018 20:00:00 22,8 7,3 8 5 18 10 WNW 1009,3 43 0,0
14.07.2018 19:00:00 23,8 5,7 9 5 19 10 W 1008,9 41 0,0
14.07.2018 18:00:00 24,4 5,7 9 5 23 12 WSW 1008,7 35 0,0
14.07.2018 17:00:00 24,7 5,0 10 5 21 11 W 1008,8 42 0,0
14.07.2018 16:00:00 24,1 7,7 9 5 19 10 SSW 1008,9 41 0,0
14.07.2018 15:00:00 24,1 8,9 8 5 18 10 SSW 1009,2 30 0,0
14.07.2018 14:00:00 24,0 9,6 10 5 16 9 SSW 1009,6 41 0,0
14.07.2018 13:00:00 23,3 9,7 9 5 16 9 S 1010,0 32 0,0
14.07.2018 12:00:00 21,7 9,2 5 3 14 8 S 1010,7 35 0,0
14.07.2018 11:00:00 19,7 8,7 6 4 12 6 NNE 1011,4 31 0,0
14.07.2018 10:00:00 19,1 9,8 5 3 10 6 ENE 1011,8 38 0,0
14.07.2018 09:00:00 17,7 10,1 5 3 11 6 NE 1012,3 40 0,0
14.07.2018 08:00:00 17,5 8,6 3 2 10 5 NW 1012,5 38 0,0
14.07.2018 07:00:00 15,9 8,6 5 3 8 5 NNW 1012,8 35 0,0
14.07.2018 06:00:00 15,8 9,5 3 1 8 4 N 1012,9 39 0,0
14.07.2018 05:00:00 14,8 8,3 3 2 8 4 NNW 1013,2 38 0,0
14.07.2018 04:00:00 13,5 9,2 2 1 11 6 WNW 1013,5 47 0,0
14.07.2018 03:00:00 13,5 8,8 5 3 10 5 NNW 1013,7 46 0,0
14.07.2018 02:00:00 12,0 11,5 3 1 5 3 NNE 1014,1 21 0,0
14.07.2018 01:00:00 12,5 11,7 0 0 3 2 N 1014,1 23 0,0
14.07.2018 00:00:00 13,3 12,0 0 0 6 3 N 1014,1 27 0,0
13.07.2018 23:00:00 14,7 12,6 0 0 7 4 N 1013,6 40 0,0
13.07.2018 22:00:00 17,4 12,3 4 2 8 4 S 1013,0 48 0,0
13.07.2018 21:00:00 16,9 11,6 0 0 8 4 N 1013,3 38 0,0
13.07.2018 20:00:00 17,5 11,5 4 2 9 5 E 1013,3 42 0,0
13.07.2018 19:00:00 18,3 11,6 5 3 15 8 N 1013,1 36 0,1
13.07.2018 18:00:00 19,1 11,6 5 3 14 8 NNW 1013,4 35 0,0
13.07.2018 17:00:00 17,8 11,4 6 3 13 7 NW 1013,9 36 0,0
13.07.2018 16:00:00 17,1 14,0 4 2 14 7 W 1013,7 33 0,1
13.07.2018 15:00:00 15,9 11,9 5 3 27 15 ESE 1013,7 35 0,4
13.07.2018 14:00:00 16,7 10,3 10 5 18 10 E 1014,1 39 0,2
13.07.2018 13:00:00 19,1 12,1 3 2 13 7 E 1013,3 38 0,0
13.07.2018 12:00:00 20,3 11,0 4 2 8 5 NE 1013,0 34 0,0
13.07.2018 11:00:00 20,8 10,9 6 4 11 6 NE 1013,4 29 0,0
13.07.2018 10:00:00 19,8 10,5 6 3 10 6 N 1013,9 34 0,0
13.07.2018 09:00:00 18,5 10,1 6 3 12 7 NE 1014,1 33 0,0
13.07.2018 08:00:00 17,9 9,8 5 3 10 6 N 1014,5 38 0,0
13.07.2018 07:00:00 15,1 8,8 6 3 16 9 N 1015,1 50 0,0
13.07.2018 06:00:00 15,9 8,9 7 4 17 9 NNW 1014,9 34 0,0
13.07.2018 05:00:00 14,3 8,5 5 3 14 8 NNW 1015,1 40 0,0
13.07.2018 04:00:00 14,4 8,8 7 4 14 8 NW 1015,2 50 0,0
13.07.2018 03:00:00 14,6 9,4 7 4 14 7 NW 1015,2 42 0,0
13.07.2018 02:00:00 15,3 10,5 3 2 14 7 NW 1015,1 41 0,0
13.07.2018 01:00:00 14,7 10,9 7 4 13 7 NNW 1015,2 40 0,0
13.07.2018 00:00:00 15,9 11,5 3 2 8 4 NNE 1015,0 44 0,0
12.07.2018 23:00:00 17,6 12,1 2 1 16 9 ENE 1014,4 45 0,0
12.07.2018 22:00:00 19,9 10,0 5 3 16 9 NNW 1013,9 49 0,0
12.07.2018 21:00:00 23,2 5,1 3 2 8 5 S 1013,0 50 0,0
12.07.2018 20:00:00 23,5 3,9 3 2 10 5 ESE 1012,9 36 0,0
12.07.2018 19:00:00 24,3 5,6 5 3 11 6 SSE 1013,0 40 0,0
12.07.2018 18:00:00 24,6 2,1 5 3 15 8 S 1013,2 36 0,0
12.07.2018 17:00:00 24,5 3,2 10 5 25 13 S 1013,5 29 0,0
12.07.2018 16:00:00 25,2 6,9 9 5 20 11 S 1013,7 33 0,0
12.07.2018 15:00:00 24,6 3,8 9 5 22 12 SSW 1014,4 37 0,0
12.07.2018 14:00:00 23,6 6,4 11 6 19 11 SSW 1014,9 29 0,0
12.07.2018 13:00:00 23,5 7,2 9 5 18 10 SW 1015,4 34 0,0
12.07.2018 12:00:00 23,1 8,0 9 5 18 10 SW 1015,7 29 0,0
12.07.2018 11:00:00 22,0 7,8 5 3 10 5 NNW 1016,2 29 0,0
12.07.2018 10:00:00 20,7 9,0 7 4 12 6 NE 1016,7 38 0,0
12.07.2018 09:00:00 20,8 10,3 3 2 8 4 ENE 1017,0 39 0,0
12.07.2018 08:00:00 19,5 10,2 3 2 9 5 NNE 1017,5 32 0,0
12.07.2018 07:00:00 19,2 11,2 2 1 9 5 NE 1017,6 29 0,0
12.07.2018 06:00:00 18,3 10,9 2 1 9 5 NE 1018,1 39 0,0
12.07.2018 05:00:00 16,1 10,6 4 2 8 4 NNE 1018,7 35 0,0
12.07.2018 04:00:00 11,7 9,9 4 2 7 4 NE 1019,9 42 0,0
12.07.2018 03:00:00 11,5 8,4 2 1 4 2 ENE 1020,0 45 0,0
12.07.2018 02:00:00 12,8 9,2 2 1 7 4 ENE 1020,0 41 0,0
12.07.2018 01:00:00 17,0 9,4 5 3 9 5 SSE 1019,5 43 0,0
12.07.2018 00:00:00 18,6 9,4 5 3 16 9 S 1019,3 50 0,0
11.07.2018 23:00:00 19,8 8,5 9 5 17 9 SSE 1019,0 43 0,0
11.07.2018 22:00:00 20,6 8,2 9 5 15 8 SE 1018,7 49 0,0
11.07.2018 21:00:00 21,9 8,8 8 4 16 8 SSE 1018,4 43 0,0
11.07.2018 20:00:00 23,5 9,1 9 5 18 10 SSE 1018,0 41 0,0
11.07.2018 19:00:00 25,4 8,8 9 5 21 12 S 1017,8 38 0,0
11.07.2018 18:00:00 25,8 9,6 12 6 20 11 SSE 1018,0 43 0,0
11.07.2018 17:00:00 26,7 9,5 6 3 19 10 SE 1018,2 42 0,0
11.07.2018 16:00:00 27,8 10,5 8 5 21 12 SE 1018,3 27 0,0
11.07.2018 15:00:00 26,6 10,3 8 4 16 9 S 1018,9 33 0,0
11.07.2018 14:00:00 26,5 8,9 10 5 17 9 S 1019,4 30 0,0
11.07.2018 13:00:00 25,1 9,8 9 5 16 9 S 1020,1 28 0,0

tt = Température de l'air
td = dewpoint
ff = Vitesse du vent
fx = gusts
dd = Direction du vent
ppp = reduced air pressure
vv = visibility
rr = Quantités de précipitations

stations d'obs. à proximité